Weather History for Darlington, SC

Change the Weather History Date:

Saturday, February 2, 2013

  Actual Average (KFLO) Record (KFLO)
Temperature  
Mean Temperature 36 °F 46 °F  
Max Temperature 51 °F 57 °F 81 °F (1974)
Min Temperature 21 °F 36 °F 18 °F (1979)
Degree Days  
Heating Degree Days 29 19  
Month to date heating degree days 38  
Since 1 July heating degree days 1640  
Cooling Degree Days 0 0  
Month to date cooling degree days 0  
Year to date cooling degree days 2  
Moisture  
Dew Point 19 °F    
Average Humidity 53    
Maximum Humidity 86    
Minimum Humidity 26    
Precipitation  
Precipitation 0.00 in 0.11 in 2.78 in (1973)
Month to date precipitation 0.21  
Year to date precipitation 3.44  
Sea Level Pressure  
Sea Level Pressure 30.27 in    
Wind  
Wind Speed 5 mph (SSW)    
Max Wind Speed 17 mph    
Max Gust Speed 21 mph    
T = Trace of Precipitation, MM = Missing Value Source: NWS Daily Summary

Daily Weather History Graph

Daily Weather History Graph

Search for Another Location

Airport:

Trip Planner

Search our weather history database for the weather conditions in past years. The results will help you decide how hot, cold, wet, or windy it might be!

Date:

Astronomy

Feb. 02, 2013 Rise Set
Actual Time 7:16 AM EST 5:50 PM EST
Civil Twilight 6:50 AM EST 6:16 PM EST
Nautical Twilight 6:20 AM EST 6:46 PM EST
Astronomical Twilight 5:50 AM EST 7:16 PM EST
Moon No Moon Rise 10:45 AM EST (2/2)
Length of Visible Light 11h 26m
Length of Day
10h 34m
Waning Gibbous, 60% of the Moon is Illuminated
Feb 2
Waning Gibbous
Feb 3
Last Quarter
Feb 10
New
Feb 17
First Quarter
Feb 25
Full

Hourly Weather History & Observations

Time (EST) Temp. Windchill Dew Point Humidity Pressure Visibility Wind Dir Wind Speed Gust Speed Precip Events Conditions
12:15 AM 24.8 °F 20.5 °F 19.4 °F 80% 30.38 in - NNE 3.5 mph - N/A   Clear
12:35 AM 26.6 °F 21.2 °F 17.6 °F 69% 30.38 in - NNE 4.6 mph - N/A   Clear
12:55 AM 26.6 °F 21.2 °F 15.8 °F 64% 30.39 in - North 4.6 mph - N/A   Clear
1:15 AM 26.6 °F 21.2 °F 15.8 °F 64% 30.39 in - NNE 4.6 mph - N/A   Clear
1:35 AM 26.6 °F 21.2 °F 15.8 °F 64% 30.38 in - NNE 4.6 mph - N/A   Clear
1:55 AM 24.8 °F 19.1 °F 15.8 °F 69% 30.39 in - NNE 4.6 mph - N/A   Clear
2:15 AM 24.8 °F 20.5 °F 17.6 °F 74% 30.39 in - NNE 3.5 mph - N/A   Clear
2:35 AM 24.8 °F - 17.6 °F 74% 30.40 in - Calm Calm - N/A   Clear
2:55 AM 24.8 °F 20.5 °F 17.6 °F 74% 30.40 in - NNE 3.5 mph - N/A   Clear
3:15 AM 23.0 °F - 19.4 °F 86% 30.39 in - Calm Calm - N/A   Unknown
3:35 AM 24.8 °F - 17.6 °F 74% 30.40 in - Calm Calm - N/A   Clear
3:55 AM 23.0 °F 18.4 °F 15.8 °F 74% 30.39 in - North 3.5 mph - N/A   Clear
4:15 AM 23.0 °F - 15.8 °F 74% 30.40 in - Calm Calm - N/A   Clear
4:35 AM 23.0 °F - 15.8 °F 74% 30.39 in - Calm Calm - N/A   Clear
4:55 AM 21.2 °F - 15.8 °F 80% 30.40 in - Calm Calm - N/A   Clear
5:15 AM 23.0 °F - 17.6 °F 80% 30.39 in - Calm Calm - N/A   Clear
5:35 AM 21.2 °F - 17.6 °F 86% 30.38 in - Calm Calm - N/A   Unknown
5:55 AM 21.2 °F - 17.6 °F 86% 30.39 in - Calm Calm - N/A   Unknown
6:15 AM 21.2 °F - 17.6 °F 86% 30.39 in - Calm Calm - N/A   Unknown
6:35 AM 21.2 °F - 17.6 °F 86% 30.40 in - Calm Calm - N/A   Unknown
6:55 AM 23.0 °F - 17.6 °F 80% 30.40 in - Calm Calm - N/A   Clear
7:15 AM 21.2 °F - 17.6 °F 86% 30.41 in - Calm Calm - N/A   Unknown
7:35 AM 21.2 °F - 17.6 °F 86% 30.41 in - Calm Calm - N/A   Unknown
7:55 AM 24.8 °F - 17.6 °F 74% 30.41 in - Calm Calm - N/A   Clear
8:15 AM 26.6 °F 21.2 °F 17.6 °F 69% 30.41 in - East 4.6 mph - N/A   Clear
8:35 AM 28.4 °F 21.2 °F 15.8 °F 59% 30.41 in - East 6.9 mph - N/A   Clear
8:55 AM 28.4 °F 19.7 °F 15.8 °F 59% 30.41 in - ESE 9.2 mph - N/A   Clear
9:15 AM 30.2 °F 22.6 °F 15.8 °F 55% 30.41 in - ESE 8.1 mph - N/A   Clear
9:35 AM 32.0 °F 25.6 °F 17.6 °F 55% 30.40 in - East 6.9 mph - N/A   Clear
9:55 AM 32.0 °F 26.4 °F 14.0 °F 48% 30.40 in - ESE 5.8 mph - N/A   Clear
10:15 AM 35.6 °F 29.9 °F 15.8 °F 44% 30.39 in - East 6.9 mph - N/A   Clear
10:35 AM 35.6 °F 29.9 °F 12.2 °F 38% 30.38 in - ESE 6.9 mph - N/A   Clear
10:55 AM 37.4 °F 32.1 °F 12.2 °F 36% 30.38 in - East 6.9 mph - N/A   Clear
11:15 AM 39.2 °F 37.0 °F 12.2 °F 33% 30.36 in - SSE 3.5 mph - N/A   Clear
11:35 AM 39.2 °F 35.9 °F 12.2 °F 33% 30.35 in - SSE 4.6 mph - N/A   Clear
11:55 AM 41.0 °F 35.2 °F 12.2 °F 31% 30.33 in - SE 9.2 mph - N/A   Clear
12:15 PM 42.8 °F - 12.2 °F 29% 30.32 in - Calm Calm - N/A   Clear
12:35 PM 44.6 °F 42.2 °F 12.2 °F 27% 30.30 in - SSW 4.6 mph - N/A   Clear
12:55 PM 44.6 °F 43.1 °F 12.2 °F 27% 30.28 in - South 3.5 mph - N/A   Clear
1:15 PM 46.4 °F 42.4 °F 15.8 °F 29% 30.25 in - SSE 8.1 mph - N/A   Clear
1:35 PM 46.4 °F 43.5 °F 15.8 °F 29% 30.24 in - South 5.8 mph - N/A   Clear
1:55 PM 48.2 °F - 15.8 °F 27% 30.23 in - SSW 10.4 mph 17.3 mph N/A   Clear
2:15 PM 48.2 °F - 15.8 °F 27% 30.22 in - SSW 10.4 mph - N/A   Clear
2:35 PM 50.0 °F - 17.6 °F 28% 30.20 in - SSW 13.8 mph - N/A   Clear
2:55 PM 51.8 °F - 17.6 °F 26% 30.20 in - SW 12.7 mph 16.1 mph N/A   Clear
3:15 PM 51.8 °F - 19.4 °F 28% 30.20 in - WSW 13.8 mph 18.4 mph N/A   Scattered Clouds
3:35 PM 50.0 °F - 17.6 °F 28% 30.19 in - SW 8.1 mph - N/A   Mostly Cloudy
3:55 PM 51.8 °F - 19.4 °F 28% 30.19 in - SW 11.5 mph - N/A   Mostly Cloudy
4:15 PM 51.8 °F - 21.2 °F 30% 30.18 in - WSW 12.7 mph - N/A   Partly Cloudy
4:35 PM 51.8 °F - 21.2 °F 30% 30.17 in - SW 9.2 mph - N/A   Clear
4:55 PM 51.8 °F - 21.2 °F 30% 30.16 in - SW 11.5 mph - N/A   Clear
5:15 PM 51.8 °F - 21.2 °F 30% 30.15 in - SW 8.1 mph - N/A   Clear
5:35 PM 48.2 °F - 23.0 °F 37% 30.15 in - SSW 6.9 mph - N/A   Clear
5:55 PM 48.2 °F - 23.0 °F 37% 30.14 in - SSW 4.6 mph - N/A   Clear
6:15 PM 46.4 °F 43.5 °F 23.0 °F 40% 30.13 in - SSW 5.8 mph - N/A   Clear
6:35 PM 46.4 °F 43.5 °F 24.8 °F 43% 30.12 in - South 5.8 mph - N/A   Scattered Clouds
6:55 PM 44.6 °F 40.7 °F 24.8 °F 46% 30.11 in - South 6.9 mph - N/A   Scattered Clouds
7:15 PM 44.6 °F 42.2 °F 24.8 °F 46% 30.11 in - South 4.6 mph - N/A   Partly Cloudy
7:35 PM 42.8 °F 40.1 °F 24.8 °F 49% 30.11 in - South 4.6 mph - N/A   Clear
7:55 PM 44.6 °F 42.2 °F 24.8 °F 46% 30.10 in - South 4.6 mph - N/A   Clear
8:15 PM 42.8 °F 41.1 °F 26.6 °F 53% 30.10 in - SSW 3.5 mph - N/A   Partly Cloudy
8:35 PM 42.8 °F 41.1 °F 28.4 °F 57% 30.11 in - SW 3.5 mph - N/A   Scattered Clouds
8:55 PM 42.8 °F 41.1 °F 28.4 °F 57% 30.12 in - West 3.5 mph - N/A   Scattered Clouds
9:15 PM 44.6 °F 42.2 °F 28.4 °F 53% 30.12 in - WNW 4.6 mph - N/A   Scattered Clouds
9:35 PM 44.6 °F 40.7 °F 24.8 °F 46% 30.11 in - WNW 6.9 mph - N/A   Scattered Clouds
9:55 PM 46.4 °F 41.1 °F 26.6 °F 46% 30.12 in - West 11.5 mph - N/A   Mostly Cloudy
10:15 PM 48.2 °F - 28.4 °F 46% 30.11 in - WSW 11.5 mph 18.4 mph N/A   Overcast
10:35 PM 48.2 °F - 28.4 °F 46% 30.10 in - SW 10.4 mph - N/A   Mostly Cloudy
10:55 PM 48.2 °F - 26.6 °F 43% 30.09 in - WSW 17.3 mph 20.7 mph N/A   Partly Cloudy
11:15 PM 48.2 °F - 28.4 °F 46% 30.08 in - West 11.5 mph - N/A   Clear
11:35 PM 46.4 °F 41.9 °F 26.6 °F 46% 30.08 in - West 9.2 mph - N/A   Partly Cloudy
11:55 PM 46.4 °F 42.9 °F 26.6 °F 46% 30.07 in - West 6.9 mph - N/A   Partly Cloudy